STARLINK-32632 (62262 NORAD) Tracking and Keplerian Element Data

This shows tracking and keplerian element data for the satellite.

Feedback or suggestion? Click here.




ElementValue
Catalog62262
NameSTARLINK-32632
Epoch Orbit1064
Epoch Day35.08333052
Epoch Year2025
RAAN275.1144
Inclination53.159
Eccentricity8.91E-05
Argument of Perigee104.0395
Mean Anonmoly256.0709
Mean Motion15.39619011
Decay Rate1.57E-06
L11 62262U 24231V 25035.08333052 .00000157 00000+0 13906-4 0 9994
L22 62262 53.1590 275.1144 0000891 104.0395 256.0709 15.39619011 10643



Live tracking and technical data element details for STARLINK-32632 (NORAD 62262). STARLINK-32632 can be tracked NOW for your location showing map with azimuth and elevation plus other details from your city location.







IsCatalogInMostPopularTable: catalog: 62262, numindb: 14
Update: records affected: 1



GetName: 62262 STARLINK-32632

Hit Count: updated at: Mon, 19 May 2025 02:54:29 GMT